Weather Roundup
Issued by NWS Springfield, MO

Home | Current Version | Previous Version | Text Only | Print | Product List | Glossary On
Versions: 1 2 3 4 5 6 7 8 9 10 11 12 13 14 15 16 17 18 19 20 21 22 23 24 25 26 27 28 29 30 31 32 33 34 35 36 37 38 39 40 41 42 43 44 45 46 47 48 49 50
000
NZUS99 KSGF 301907
HRRSGF

HOURLY WEATHER
NATIONAL WEATHER SERVICE SPRINGFIELD MO
200 PM CDT SAT APR 30 2016

......SGF CWA......

CITY           SKY/WX    TMP DP  RH WIND       PRES   REMARKS
SPRINGFIELD    PTSUNNY   73  60  63 W16       29.72S
JOPLIN         PTSUNNY   69  59  70 SW16G24   29.75F
WEST PLAINS    CLOUDY    70  60  70 VRB7      29.77F
ROLLA          CLOUDY    71  64  78 S13       29.71S
OSAGE BEACH    MOSUNNY   73  57  56 SW13      29.70S
BRANSON        PTSUNNY   73  61  64 W12       29.74F

......SURROUNDING SGF CWA......

CITY           SKY/WX    TMP DP  RH WIND       PRES   REMARKS
CHANUTE        MOSUNNY   63  50  62 SW13      29.77S
PARSONS        MOSUNNY   63  53  70 W13       29.79S
COFFEYVILLE    MOSUNNY   63  51  65 W10G16    29.78F
EMPORIA        MOSUNNY   61  48  62 W9        29.75F
GROVE OK       CLOUDY    66  59  77 SW13      29.78S
ROGERS AR      CLOUDY    66  63  88 W10G21    29.77S
SILOAM SPRINGS CLOUDY    63  54  72 W10       29.79R
HARRISON AR    PTSUNNY   77  61  57 W8        29.72F
NEAR YELLVILLE CLOUDY   N/A N/A N/A CALM      29.70F

......KANSAS AND MISSOURI......

CITY           SKY/WX    TMP DP  RH WIND       PRES   REMARKS
KANSAS CTY INT MOSUNNY   64  54  69 SW18G24   29.71S
DOWNTOWN KC    PTSUNNY   67  52  58 SW13G23   29.71R
COLUMBIA       MOSUNNY   73  62  68 SW14G21   29.69S
SEDALIA        MOSUNNY   73  56  54 SW21G32   29.69S
ST JOSEPH      CLOUDY    62  54  74 SW17G23   29.70R
ST LOUIS       CLOUDY    68  61  78 S9        29.74F
SPIRIT OF STL  CLOUDY    70  64  83 S9        29.72S
KIRKSVILLE     CLOUDY    60  59  96 E3        29.70S
WICHITA        MOSUNNY   61  46  57 W16       29.78F
TOPEKA         PTSUNNY   61  49  64 W12       29.73F
OLATHE         PTSUNNY   63  51  65 SW12G26   29.73R

......TENNESSEE......

CITY           SKY/WX    TMP DP  RH WIND       PRES   REMARKS
MEMPHIS        CLOUDY    73  61  65 S3        29.79F
NASHVILLE      CLOUDY    75  63  66 VRB7      29.91F

......ARKANSAS.......

CITY           SKY/WX    TMP DP  RH WIND       PRES   REMARKS
FAYETTEVILLE   PTSUNNY   70  65  84 W9        29.76S
FT SMITH       MOSUNNY   75  63  66 W14G21    29.73R
LITTLE ROCK    PTSUNNY   75  62  64 SW8       29.74F

......OKLAHOMA.......

CITY           SKY/WX    TMP DP  RH WIND       PRES   REMARKS
TULSA          MOSUNNY   64  53  67 W12       29.78F
PONCA CITY     MOSUNNY   61  46  57 W9G17     29.81F
MCALESTER      CLOUDY    64  57  78 NW10      29.79S
OKLAHOMA CITY  MOSUNNY   66  50  56 NW10G21   29.81F

......IOWA............

CITY           SKY/WX    TMP DP  RH WIND       PRES   REMARKS
DES MOINES     LGT RAIN  50  46  86 E15       29.77S FOG
QUAD CITIES    HVY RAIN  50  46  86 E17G28    29.82R VSB 1

......ILLINOIS........

CITY           SKY/WX    TMP DP  RH WIND       PRES   REMARKS
QUINCY         CLOUDY    62  59  90 SE10      29.71F
CHICAGO        LGT RAIN  45  42  89 E18G29    29.95F FOG




USA.gov is the U.S. government's official web portal to all federal, state and local government web resources and services.